Weather History for Naha City, Japan

Change the Weather History Date:

Friday, December 7, 2012

  Actual Average Record
Temperature  
Mean Temperature 66 °F -  
Max Temperature 71 °F 68 °F 78 °F (2002)
Min Temperature 60 °F 60 °F 59 °F (1996)
Growing Degree Days 16 (Base 50)    
Moisture  
Dew Point 49 °F    
Average Humidity 55    
Maximum Humidity 63    
Minimum Humidity 49    
Precipitation  
Precipitation 0.00 in - - ()
Sea Level Pressure  
Sea Level Pressure 30.11 in    
Wind  
Wind Speed 7 mph ()    
Max Wind Speed 14 mph    
Max Gust Speed 18 mph    
Visibility 6.2 miles    
Events      
Averages and records for this station are not official NWS values.
T = Trace of Precipitation, MM = Missing Value Source: Averaged Metar Reports

Daily Weather History Graph

Daily Weather History Graph

Search for Another Location

Airport:

Trip Planner

Search our weather history database for the weather conditions in past years. The results will help you decide how hot, cold, wet, or windy it might be!

Date:

Astronomy

Dec. 07, 2012 Rise Set
Actual Time 7:04 AM JST 5:37 PM JST
Civil Twilight 6:38 AM JST 6:02 PM JST
Nautical Twilight 6:10 AM JST 6:31 PM JST
Astronomical Twilight 5:42 AM JST 6:59 PM JST
Moon 12:20 AM JST (12/7) 12:43 PM JST (12/7)
Length of Visible Light 11h 23m
Length of Day
10h 33m
Last Quarter, 45% of the Moon is Illuminated
Dec 7
Last Quarter
Dec 13
New
Dec 20
First Quarter
Dec 28
Full
Jan 5
Last Quarter

Hourly Weather History & Observations

Time (JST) Temp. Dew Point Humidity Pressure Visibility Wind Dir Wind Speed Gust Speed Precip Events Conditions
12:00 AM 60.8 °F 46.4 °F 59% 30.12 in 6.2 mi NNE 6.9 mph - N/A   Partly Cloudy
12:30 AM 62.6 °F 44.6 °F 52% 30.12 in 6.2 mi NE 6.9 mph - N/A   Partly Cloudy
1:00 AM 60.8 °F 46.4 °F 59% 30.12 in 6.2 mi NE 6.9 mph - N/A   Partly Cloudy
1:30 AM 60.8 °F 46.4 °F 59% 30.12 in 6.2 mi NE 6.9 mph - N/A   Partly Cloudy
2:00 AM 60.8 °F 46.4 °F 59% 30.12 in 6.2 mi NE 6.9 mph - N/A   Partly Cloudy
2:30 AM 60.8 °F 46.4 °F 59% 30.12 in - NE 8.1 mph - N/A   Clear
3:00 AM 60.8 °F 48.2 °F 63% 30.12 in - NE 6.9 mph - N/A   Clear
3:30 AM 62.6 °F 48.2 °F 59% 30.12 in - NE 5.8 mph - N/A   Clear
4:00 AM 62.6 °F 48.2 °F 59% 30.12 in - NE 8.1 mph - N/A   Clear
4:30 AM 62.6 °F 48.2 °F 59% 30.09 in - NE 9.2 mph - N/A   Clear
5:00 AM 62.6 °F 46.4 °F 55% 30.09 in - NE 10.4 mph - N/A   Clear
5:30 AM 60.8 °F 46.4 °F 59% 30.09 in - NE 10.4 mph - N/A   Clear
6:00 AM 62.6 °F 46.4 °F 55% 30.12 in - NE 10.4 mph - N/A   Clear
6:30 AM 62.6 °F 48.2 °F 59% 30.12 in - NE 6.9 mph - N/A   Clear
7:00 AM 62.6 °F 46.4 °F 55% 30.12 in - NE 8.1 mph - N/A   Clear
7:30 AM 62.6 °F 46.4 °F 55% 30.12 in 6.2 mi NE 6.9 mph - N/A   Mostly Cloudy
8:00 AM 62.6 °F 46.4 °F 55% 30.12 in 6.2 mi NE 8.1 mph - N/A   Mostly Cloudy
8:30 AM 64.4 °F 48.2 °F 56% 30.12 in 6.2 mi ENE 6.9 mph - N/A   Mostly Cloudy
9:00 AM 64.4 °F 48.2 °F 56% 30.15 in 6.2 mi ENE 6.9 mph - N/A   Mostly Cloudy
9:30 AM 64.4 °F 48.2 °F 56% 30.15 in 6.2 mi NE 6.9 mph - N/A   Mostly Cloudy
10:00 AM 66.2 °F 50.0 °F 56% 30.15 in 6.2 mi NE 5.8 mph - N/A   Mostly Cloudy
10:30 AM 68.0 °F 50.0 °F 52% 30.15 in 6.2 mi NE 5.8 mph - N/A   Mostly Cloudy
11:00 AM 68.0 °F 50.0 °F 52% 30.12 in 6.2 mi NE 6.9 mph - N/A   Scattered Clouds
11:30 AM 69.8 °F 50.0 °F 49% 30.12 in 6.2 mi ENE 6.9 mph - N/A   Mostly Cloudy
12:00 PM 69.8 °F 50.0 °F 49% 30.12 in 6.2 mi ENE 8.1 mph - N/A   Mostly Cloudy
12:30 PM 71.6 °F 51.8 °F 50% 30.09 in 6.2 mi ENE 9.2 mph - N/A   Scattered Clouds
1:00 PM 69.8 °F 51.8 °F 53% 30.09 in 6.2 mi NE 6.9 mph - N/A   Scattered Clouds
1:30 PM 69.8 °F 51.8 °F 53% 30.09 in 6.2 mi Variable 5.8 mph - N/A   Scattered Clouds
2:00 PM 69.8 °F 50.0 °F 49% 30.09 in 6.2 mi NNE 8.1 mph - N/A   Mostly Cloudy
2:30 PM 68.0 °F 50.0 °F 52% 30.06 in 6.2 mi NNE 9.2 mph - N/A   Scattered Clouds
3:00 PM 69.8 °F 50.0 °F 49% 30.06 in 6.2 mi North 12.7 mph - N/A   Scattered Clouds
3:30 PM 69.8 °F 50.0 °F 49% 30.06 in 6.2 mi North 13.8 mph - N/A   Scattered Clouds
4:00 PM 68.0 °F 50.0 °F 52% 30.06 in 6.2 mi NNE 12.7 mph - N/A   Scattered Clouds
4:30 PM 68.0 °F 50.0 °F 52% 30.06 in 6.2 mi NNE 11.5 mph - N/A   Mostly Cloudy
5:00 PM 68.0 °F 50.0 °F 52% 30.09 in 6.2 mi NE 3.5 mph - N/A   Mostly Cloudy
5:30 PM 68.0 °F 50.0 °F 52% 30.09 in 6.2 mi Variable 5.8 mph - N/A   Mostly Cloudy
6:00 PM 68.0 °F 50.0 °F 52% 30.09 in 6.2 mi NE 5.8 mph - N/A   Scattered Clouds
6:30 PM 66.2 °F 50.0 °F 56% 30.09 in 6.2 mi NNE 8.1 mph - N/A   Partly Cloudy
7:00 PM 66.2 °F 50.0 °F 56% 30.09 in 6.2 mi NE 5.8 mph 18.4 mph N/A   Partly Cloudy
7:30 PM 66.2 °F 50.0 °F 56% 30.09 in 6.2 mi ENE 6.9 mph - N/A   Partly Cloudy
8:00 PM 66.2 °F 50.0 °F 56% 30.12 in 6.2 mi NE 5.8 mph - N/A   Partly Cloudy
8:30 PM 66.2 °F 50.0 °F 56% 30.12 in 6.2 mi NE 5.8 mph - N/A   Partly Cloudy
9:00 PM 66.2 °F 50.0 °F 56% 30.12 in 6.2 mi NE 5.8 mph - N/A   Partly Cloudy
9:30 PM 66.2 °F 48.2 °F 52% 30.12 in 6.2 mi NE 6.9 mph - N/A   Mostly Cloudy
10:00 PM 64.4 °F 48.2 °F 56% 30.12 in 6.2 mi NE 5.8 mph - N/A   Scattered Clouds
10:30 PM 64.4 °F 48.2 °F 56% 30.12 in 6.2 mi NE 6.9 mph - N/A   Partly Cloudy
11:00 PM 64.4 °F 48.2 °F 56% 30.12 in 6.2 mi ENE 4.6 mph - N/A   Partly Cloudy
11:30 PM 64.4 °F 48.2 °F 56% 30.12 in 6.2 mi NE 4.6 mph - N/A   Partly Cloudy